This is the latest recevied weather packets stored in our database for station/object K5IDL. If no packets are shown the sender has not sent any weather packets the latest 10 day(s).
| Time | Temp. | Humidity | Pressure | Rain* | Wind** | Luminosity | Snow |
|---|---|---|---|---|---|---|---|
| 1777538223 | 16.11° C | 85% | 1015.2 hPa | 0 mm | - | 0 W/m² | - |
| 1777536456 | 16.67° C | 84% | 1015.1 hPa | 0 mm | - | 0 W/m² | - |
| 1777535799 | 16.67° C | 84% | 1015.1 hPa | 0 mm | - | 0 W/m² | - |
| 1777532801 | 17.22° C | 82% | 1015.5 hPa | 0 mm | - | 0 W/m² | - |
| 1777531609 | 17.22° C | 82% | 1015.8 hPa | 0 mm | - | 0 W/m² | - |
| 1777521379 | 17.78° C | 79% | 1016.1 hPa | 0 mm | - | 0 W/m² | - |
| 1777520804 | 17.78° C | 79% | 1016.4 hPa | 0 mm | - | 0 W/m² | - |
| 1777520230 | 17.78° C | 78% | 1016.4 hPa | 0 mm | - | 0 W/m² | - |
| 1777518442 | 17.78° C | 79% | 1016.1 hPa | 0 mm | - | 0 W/m² | - |
| 1777505892 | 17.22° C | 81% | 1014.1 hPa | 0 mm | - | 11 W/m² | - |
| 1777505234 | 17.22° C | 81% | 1014.5 hPa | 0 mm | - | 12 W/m² | - |
| 1777499811 | 17.22° C | 81% | 1013.6 hPa | 0 mm | - | 87 W/m² | - |
| 1777490874 | 17.22° C | 78% | 1015.5 hPa | 0 mm | - | 32 W/m² | - |
| 1777490237 | 17.78° C | 77% | 1015.7 hPa | 0 mm | - | 40 W/m² | - |
| 1777486664 | 17.22° C | 80% | 1016.6 hPa | 0 mm | - | 60 W/m² | - |
| 1777485389 | 17.22° C | 81% | 1016.9 hPa | 0 mm | - | 98 W/m² | - |
| 1777473380 | 15.56° C | 81% | 1016.9 hPa | 0 mm | - | 39 W/m² | - |
| 1777469828 | 15.56° C | 81% | 1016.8 hPa | 0 mm | - | 13 W/m² | - |
| 1777467467 | 15.56° C | 80% | 1016.4 hPa | 0 mm | - | 9 W/m² | - |
| 1777465023 | 15.56° C | 80% | 1015.4 hPa | 0 mm | - | 5 W/m² | - |
| 1777463237 | 15.56° C | 78% | 1015.4 hPa | 0 mm | - | 1 W/m² | - |
| 1777460239 | 16.67° C | 74% | 1015.1 hPa | 0 mm | - | 0 W/m² | - |
| 1777459027 | 16.67° C | 72% | 1014.7 hPa | 0 mm | - | 0 W/m² | - |
| 1777447034 | 19.44° C | 81% | 1014.2 hPa | 0 mm | - | 0 W/m² | - |
| 1777443979 | 19.44° C | 81% | 1014.9 hPa | 0 mm | - | 0 W/m² | - |
* Rain latest hour (hover to see other rain measurements)
** Current wind speed in m/s (hover to see current wind gust speed)